| time (UTC) | temp C | wind direction | speed KPH | gust KPH | rain 1hr cm | rain 24hr cm | rain mn cm | humidity % | barometer mb |
| 20260903005408 | 16 | 206 | 6.4 | 16.1 | 0.00 | 0.43 | 0.43 | 75 | 1007.6 |
| 20260903004906 | 16 | 207 | 6.4 | 16.1 | 0.00 | 0.43 | 0.43 | 75 | 1007.5 |
| 20260903004406 | 16 | 189 | 8.0 | 16.1 | 0.00 | 0.43 | 0.43 | 75 | 1007.6 |
| 20260903003911 | 16 | 184 | 6.4 | 12.9 | 0.00 | 0.43 | 0.43 | 75 | 1007.5 |
| 20260903003907 | 16 | 182 | 6.4 | 16.1 | 0.00 | 0.43 | 0.43 | 75 | 1007.6 |
| 20260903003520 | 17 | 223 | 4.8 | 12.9 | 0.00 | 0.43 | 0.43 | 73 | 1007.5 |
| 20260903002408 | 17 | 192 | 3.2 | 8.0 | 0.00 | 0.43 | 0.43 | 73 | 1007.4 |
| 20260903001908 | 17 | 215 | 3.2 | 8.0 | 0.00 | 0.43 | 0.43 | 77 | 1007.3 |
| 20260903001406 | 17 | 165 | 3.2 | 8.0 | 0.00 | 0.43 | 0.43 | 76 | 1007.4 |
| 20260903000907 | 17 | 244 | 3.2 | 8.0 | 0.00 | 0.43 | 0.43 | 76 | 1007.3 |
| 20260903000406 | 17 | 214 | 3.2 | 8.0 | 0.00 | 0.43 | 0.43 | 75 | 1007.3 |
| 20260902235907 | 17 | 250 | 1.6 | 8.0 | 0.00 | 0.43 | 0.43 | 81 | 1007.3 |
| 20260902235407 | 16 | 232 | 1.6 | 8.0 | 0.00 | 0.43 | 0.43 | 82 | 1007.2 |
| 20260902234907 | 16 | 198 | 1.6 | 4.8 | 0.03 | 0.43 | 0.43 | 83 | 1007.3 |
| 20260902234406 | 16 | 355 | 0.0 | 3.2 | 0.03 | 0.43 | 0.43 | 85 | 1007.2 |
| 20260902233907 | 16 | 355 | 0.0 | 3.2 | 0.03 | 0.43 | 0.43 | 85 | 1007.1 |
| 20260902233407 | 16 | 355 | 0.0 | 3.2 | 0.03 | 0.43 | 0.43 | 84 | 1007.0 |
| 20260902232906 | 16 | 355 | 0.0 | 3.2 | 0.03 | 0.43 | 0.43 | 86 | 1007.1 |
| 20260902232407 | 16 | 355 | 0.0 | 3.2 | 0.03 | 0.43 | 0.43 | 87 | 1007.1 |
| 20260902231911 | 15 | 355 | 0.0 | 4.8 | 0.03 | 0.43 | 0.43 | 88 | 1007.1 |
| 20260902231905 | 15 | 325 | 0.0 | 4.8 | 0.03 | 0.43 | 0.43 | 86 | 1007.0 |
| 20260902231019 | 15 | 305 | 1.6 | 4.8 | 0.03 | 0.43 | 0.43 | 83 | 1006.9 |
| 20260902230909 | 15 | 311 | 1.6 | 4.8 | 0.03 | 0.43 | 0.43 | 86 | 1006.9 |
| 20260902230905 | 15 | 325 | 1.6 | 4.8 | 0.03 | 0.43 | 0.43 | 86 | 1007.0 |
| 20260902225408 | 15 | 299 | 1.6 | 4.8 | 0.00 | 0.41 | 0.41 | 82 | 1006.8 |
| 20260902225404 | 15 | 299 | 0.0 | 4.8 | 0.03 | 0.43 | 0.43 | 83 | 1006.8 |
| 20260902225016 | 16 | 302 | 1.6 | 4.8 | 0.00 | 0.41 | 0.41 | 80 | 1006.7 |
| 20260902223905 | 16 | 266 | 1.6 | 8.0 | 0.00 | 0.41 | 0.41 | 83 | 1006.6 |
| 20260902223900 | 16 | 266 | 1.6 | 3.2 | 0.00 | 0.41 | 0.41 | 82 | 1006.7 |
| 20260902223514 | 16 | 291 | 3.2 | 8.0 | 0.00 | 0.41 | 0.41 | 81 | 1006.6 |
| 20260902223020 | 16 | 302 | 3.2 | 6.4 | 0.00 | 0.41 | 0.41 | 84 | 1006.3 |
| 20260902221901 | 16 | 290 | 1.6 | 4.8 | 0.00 | 0.41 | 0.41 | 83 | 1006.3 |
| 20260902221404 | 16 | 275 | 1.6 | 4.8 | 0.00 | 0.41 | 0.41 | 84 | 1006.3 |
| 20260902221400 | 15 | 233 | 1.6 | 4.8 | 0.00 | 0.41 | 0.41 | 83 | 1006.3 |
| 20260902220359 | 16 | 165 | 0.0 | 6.4 | 0.00 | 0.41 | 0.41 | 84 | 1006.2 |
| 20260902215858 | 16 | 260 | 1.6 | 6.4 | 0.00 | 0.41 | 0.41 | 87 | 1006.2 |
| 20260902215358 | 16 | 259 | 1.6 | 6.4 | 0.00 | 0.41 | 0.41 | 87 | 1006.3 |
| 20260902214856 | 16 | 289 | 1.6 | 6.4 | 0.00 | 0.41 | 0.41 | 87 | 1006.3 |
| 20260902214357 | 15 | 281 | 1.6 | 4.8 | 0.00 | 0.41 | 0.41 | 88 | 1006.3 |
| 20260902213856 | 15 | 235 | 1.6 | 4.8 | 0.00 | 0.41 | 0.41 | 90 | 1006.2 |
| 20260902213358 | 15 | 299 | 0.0 | 3.2 | 0.00 | 0.41 | 0.41 | 90 | 1006.1 |
| 20260902212854 | 15 | 299 | 1.6 | 4.8 | 0.00 | 0.41 | 0.41 | 90 | 1006.0 |
| 20260902212355 | 15 | 299 | 1.6 | 6.4 | 0.00 | 0.41 | 0.41 | 90 | 1006.0 |
| 20260902211859 | 15 | 213 | 3.2 | 9.7 | 0.00 | 0.41 | 0.41 | 89 | 1005.8 |
| 20260902211855 | 15 | 318 | 1.6 | 6.4 | 0.00 | 0.41 | 0.41 | 90 | 1005.9 |
| 20260902210854 | 15 | 207 | 4.8 | 9.7 | 0.00 | 0.41 | 0.41 | 88 | 1005.8 |
| 20260902210401 | 15 | 175 | 4.8 | 14.5 | 0.00 | 0.41 | 0.41 | 90 | 1005.6 |
| 20260902210357 | 15 | 178 | 4.8 | 14.5 | 0.00 | 0.41 | 0.41 | 89 | 1005.7 |
| 20260902210007 | 15 | 172 | 6.4 | 12.9 | 0.00 | 0.41 | 0.41 | 89 | 1005.6 |
| 20260902204854 | 15 | 182 | 6.4 | 14.5 | 0.03 | 0.41 | 0.41 | 88 | 1005.5 |
| 20260902204355 | 15 | 180 | 8.0 | 19.3 | 0.03 | 0.41 | 0.41 | 89 | 1005.5 |
| 20260902203859 | 15 | 186 | 8.0 | 12.9 | 0.03 | 0.41 | 0.41 | 90 | 1005.4 |
| 20260902203854 | 15 | 167 | 8.0 | 19.3 | 0.03 | 0.41 | 0.41 | 90 | 1005.4 |
| 20260902203512 | 15 | 179 | 6.4 | 12.9 | 0.03 | 0.41 | 0.41 | 90 | 1005.5 |
| 20260902202358 | 15 | 158 | 6.4 | 19.3 | 0.05 | 0.41 | 0.41 | 91 | 1005.3 |
| 20260902202354 | 15 | 171 | 6.4 | 19.3 | 0.03 | 0.41 | 0.41 | 91 | 1005.4 |
| 20260902201355 | 15 | 190 | 3.2 | 11.3 | 0.05 | 0.41 | 0.41 | 91 | 1005.4 |
| 20260902200852 | 15 | 186 | 3.2 | 9.7 | 0.05 | 0.41 | 0.41 | 92 | 1005.3 |
| 20260902200354 | 15 | 161 | 3.2 | 14.5 | 0.05 | 0.41 | 0.41 | 91 | 1005.3 |
| 20260902195852 | 15 | 173 | 4.8 | 16.1 | 0.08 | 0.41 | 0.41 | 91 | 1005.3 |
| 20260902195353 | 15 | 175 | 4.8 | 16.1 | 0.08 | 0.41 | 0.41 | 92 | 1005.3 |
| 20260902194853 | 15 | 155 | 4.8 | 14.5 | 0.05 | 0.38 | 0.38 | 91 | 1005.4 |
| 20260902194352 | 15 | 169 | 4.8 | 16.1 | 0.05 | 0.38 | 0.38 | 91 | 1005.3 |
| 20260902193852 | 14 | 188 | 6.4 | 16.1 | 0.08 | 0.38 | 0.38 | 91 | 1005.4 |
| 20260902193353 | 14 | 172 | 8.0 | 24.1 | 0.08 | 0.38 | 0.38 | 91 | 1005.4 |
| 20260902192852 | 14 | 156 | 9.7 | 24.1 | 0.10 | 0.38 | 0.38 | 90 | 1005.3 |
| 20260902192353 | 14 | 169 | 6.4 | 20.9 | 0.10 | 0.38 | 0.38 | 90 | 1005.2 |
| 20260902191855 | 14 | 176 | 3.2 | 12.9 | 0.10 | 0.36 | 0.36 | 91 | 1005.2 |
| 20260902191849 | 14 | 173 | 4.8 | 17.7 | 0.08 | 0.36 | 0.36 | 91 | 1005.2 |
| 20260902191503 | 14 | 163 | 3.2 | 16.1 | 0.10 | 0.36 | 0.36 | 92 | 1005.2 |
| 20260902191003 | 14 | 161 | 3.2 | 16.1 | 0.13 | 0.36 | 0.36 | 91 | 1005.2 |
| 20260902185850 | 13 | 157 | 1.6 | 14.5 | 0.10 | 0.33 | 0.36 | 91 | 1005.3 |
| 20260902185356 | 13 | 171 | 3.2 | 12.9 | 0.15 | 0.33 | 0.33 | 91 | 1005.4 |
| 20260902185352 | 13 | 166 | 3.2 | 12.9 | 0.13 | 0.33 | 0.33 | 91 | 1005.2 |
| 20260902185003 | 13 | 189 | 3.2 | 12.9 | 0.18 | 0.33 | 0.33 | 91 | 1005.4 |
| 20260902183852 | 13 | 188 | 3.2 | 14.5 | 0.20 | 0.30 | 0.30 | 91 | 1005.3 |
| 20260902183848 | 13 | 165 | 3.2 | 12.9 | 0.18 | 0.30 | 0.30 | 91 | 1005.4 |
| 20260902182848 | 13 | 136 | 3.2 | 14.5 | 0.18 | 0.28 | 0.28 | 91 | 1005.3 |
| 20260902182353 | 13 | 180 | 1.6 | 8.0 | 0.18 | 0.28 | 0.28 | 91 | 1005.4 |
| 20260902182348 | 13 | 180 | 3.2 | 9.7 | 0.18 | 0.28 | 0.28 | 91 | 1005.4 |
| 20260902181352 | 13 | 317 | 1.6 | 6.4 | 0.15 | 0.25 | 0.25 | 90 | 1005.6 |
| 20260902181348 | 13 | 161 | 1.6 | 6.4 | 0.15 | 0.25 | 0.25 | 90 | 1005.5 |
| 20260902180353 | 13 | 173 | 1.6 | 8.0 | 0.15 | 0.23 | 0.23 | 90 | 1005.5 |
| 20260902180347 | 13 | 168 | 1.6 | 8.0 | 0.13 | 0.23 | 0.25 | 90 | 1005.5 |
| 20260902175349 | 14 | 173 | 1.6 | 6.4 | 0.13 | 0.20 | 0.20 | 90 | 1005.5 |
| 20260902174848 | 14 | 179 | 1.6 | 6.4 | 0.10 | 0.18 | 0.18 | 89 | 1005.5 |
| 20260902174347 | 14 | 180 | 0.0 | 4.8 | 0.08 | 0.15 | 0.15 | 89 | 1005.7 |
| 20260902173849 | 14 | 178 | 0.0 | 6.4 | 0.08 | 0.13 | 0.13 | 89 | 1005.9 |
| 20260902173345 | 14 | 169 | 1.6 | 6.4 | 0.05 | 0.10 | 0.10 | 89 | 1006.0 |
| 20260902172851 | 14 | 157 | 0.0 | 4.8 | 0.05 | 0.10 | 0.10 | 89 | 1005.9 |
| 20260902172847 | 14 | 177 | 0.0 | 3.2 | 0.05 | 0.10 | 0.10 | 89 | 1005.9 |
| 20260902172459 | 14 | 169 | 0.0 | 4.8 | 0.08 | 0.10 | 0.10 | 89 | 1006.0 |
| 20260902171346 | 14 | 135 | 0.0 | 4.8 | 0.08 | 0.10 | 0.10 | 89 | 1006.1 |
| 20260902170846 | 14 | 185 | 0.0 | 4.8 | 0.08 | 0.10 | 0.10 | 89 | 1006.1 |
| 20260902170345 | 14 | 186 | 0.0 | 4.8 | 0.08 | 0.10 | 0.10 | 89 | 1006.2 |
| 20260902165847 | 14 | 159 | 0.0 | 4.8 | 0.05 | 0.08 | 0.10 | 89 | 1006.3 |
| 20260902165345 | 14 | 150 | 1.6 | 8.0 | 0.08 | 0.08 | 0.08 | 89 | 1006.3 |
| 20260902164844 | 14 | 184 | 1.6 | 8.0 | 0.08 | 0.08 | 0.08 | 88 | 1006.3 |
| 20260902164345 | 14 | 169 | 1.6 | 8.0 | 0.08 | 0.08 | 0.08 | 88 | 1006.3 |
| 20260902163848 | 14 | 133 | 0.0 | 6.4 | 0.05 | 0.05 | 0.05 | 88 | 1006.3 |
| 20260902163844 | 14 | 186 | 1.6 | 8.0 | 0.05 | 0.05 | 0.05 | 88 | 1006.3 |
| 20260902162843 | 14 | 175 | 0.0 | 0.0 | 0.05 | 0.05 | 0.05 | 89 | 1006.3 |
| 20260902162344 | 14 | 175 | 0.0 | 0.0 | 0.05 | 0.05 | 0.05 | 89 | 1006.3 |
| 20260902161843 | 14 | 221 | 0.0 | 0.0 | 0.03 | 0.03 | 0.03 | 89 | 1006.5 |
| 20260902161349 | 14 | 221 | 0.0 | 0.0 | 0.03 | 0.03 | 0.03 | 88 | 1006.3 |
| 20260902161345 | 14 | 221 | 0.0 | 0.0 | 0.03 | 0.03 | 0.03 | 89 | 1006.3 |
| 20260902160842 | 14 | 221 | 0.0 | 0.0 | 0.03 | 0.03 | 0.03 | 88 | 1006.3 |
| 20260902160455 | 14 | 221 | 0.0 | 0.0 | 0.00 | 0.00 | 0.00 | 87 | 1006.3 |
| 20260902155841 | 14 | 221 | 0.0 | 0.0 | 0.03 | 0.03 | 0.03 | 88 | 1006.3 |
| 20260902155340 | 14 | 221 | 0.0 | 0.0 | 0.00 | 0.00 | 0.00 | 87 | 1006.3 |
| 20260902154344 | 14 | 221 | 0.0 | 3.2 | 0.00 | 0.00 | 0.00 | 87 | 1006.5 |
| 20260902154340 | 14 | 221 | 0.0 | 0.0 | 0.00 | 0.00 | 0.00 | 87 | 1006.5 |
| 20260902153958 | 14 | 221 | 0.0 | 3.2 | 0.00 | 0.00 | 0.00 | 86 | 1006.5 |
| 20260902152837 | 14 | 221 | 0.0 | 0.0 | 0.00 | 0.00 | 0.00 | 85 | 1006.5 |
| 20260902152337 | 14 | 221 | 0.0 | 3.2 | 0.00 | 0.00 | 0.00 | 85 | 1006.6 |
| 20260902151838 | 14 | 221 | 0.0 | 3.2 | 0.00 | 0.00 | 0.00 | 85 | 1006.7 |
| 20260902151339 | 14 | 221 | 0.0 | 3.2 | 0.00 | 0.00 | 0.00 | 85 | 1006.6 |
| 20260902150838 | 14 | 221 | 0.0 | 3.2 | 0.00 | 0.00 | 0.00 | 84 | 1006.7 |
| 20260902150338 | 14 | 221 | 0.0 | 3.2 | 0.00 | 0.00 | 0.00 | 85 | 1006.7 |
| 20260902145837 | 14 | 221 | 0.0 | 3.2 | 0.00 | 0.00 | 0.00 | 85 | 1006.8 |
| 20260902145339 | 14 | 235 | 0.0 | 3.2 | 0.00 | 0.00 | 0.00 | 85 | 1006.8 |
| 20260902144844 | 14 | 197 | 0.0 | 0.0 | 0.00 | 0.00 | 0.00 | 85 | 1006.9 |
| 20260902144837 | 14 | 235 | 0.0 | 3.2 | 0.00 | 0.00 | 0.00 | 85 | 1006.8 |
| 20260902144338 | 14 | 235 | 0.0 | 1.6 | 0.00 | 0.00 | 0.00 | 85 | 1006.9 |
| 20260902143338 | 14 | 197 | 0.0 | 0.0 | 0.00 | 0.00 | 0.00 | 85 | 1006.9 |
| 20260902142837 | 14 | 197 | 0.0 | 0.0 | 0.00 | 0.00 | 0.00 | 85 | 1007.0 |
| 20260902142337 | 14 | 197 | 0.0 | 0.0 | 0.00 | 0.00 | 0.00 | 85 | 1007.1 |
| 20260902141838 | 14 | 196 | 0.0 | 0.0 | 0.00 | 0.00 | 0.00 | 85 | 1007.2 |
| 20260902141337 | 14 | 196 | 0.0 | 0.0 | 0.00 | 0.00 | 0.00 | 84 | 1007.3 |
| 20260902140838 | 14 | 196 | 0.0 | 0.0 | 0.00 | 0.00 | 0.00 | 83 | 1007.3 |
| 20260902140339 | 14 | 196 | 0.0 | 0.0 | 0.00 | 0.00 | 0.00 | 83 | 1007.3 |
| 20260902135838 | 14 | 196 | 0.0 | 0.0 | 0.00 | 0.00 | 0.00 | 83 | 1007.3 |
| 20260902135342 | 14 | 196 | 0.0 | 0.0 | 0.00 | 0.00 | 0.00 | 83 | 1007.5 |
| 20260902135338 | 14 | 196 | 0.0 | 0.0 | 0.00 | 0.00 | 0.00 | 83 | 1007.4 |
| 20260902134338 | 14 | 196 | 0.0 | 0.0 | 0.00 | 0.00 | 0.00 | 82 | 1007.5 |
| 20260902133842 | 14 | 196 | 0.0 | 0.0 | 0.00 | 0.00 | 0.00 | 82 | 1007.5 |
| 20260902133838 | 14 | 196 | 0.0 | 0.0 | 0.00 | 0.00 | 0.00 | 82 | 1007.5 |
| 20260902132843 | 14 | 196 | 0.0 | 3.2 | 0.00 | 0.00 | 0.00 | 82 | 1007.6 |
| 20260902132838 | 14 | 196 | 0.0 | 0.0 | 0.00 | 0.00 | 0.00 | 82 | 1007.6 |
| 20260902131837 | 14 | 196 | 0.0 | 3.2 | 0.00 | 0.00 | 0.00 | 82 | 1007.7 |
| 20260902131337 | 14 | 196 | 0.0 | 3.2 | 0.00 | 0.00 | 0.00 | 82 | 1007.7 |
| 20260902130837 | 14 | 196 | 0.0 | 3.2 | 0.00 | 0.00 | 0.00 | 82 | 1007.8 |
| 20260902130338 | 14 | 196 | 0.0 | 3.2 | 0.00 | 0.00 | 0.00 | 82 | 1007.9 |
| 20260902125836 | 14 | 196 | 0.0 | 3.2 | 0.00 | 0.00 | 0.00 | 81 | 1007.9 |
| 20260902125336 | 14 | 196 | 0.0 | 4.8 | 0.00 | 0.00 | 0.00 | 81 | 1008.0 |
| 20260902124840 | 14 | 196 | 0.0 | 3.2 | 0.00 | 0.00 | 0.00 | 81 | 1008.0 |
| 20260902124835 | 14 | 196 | 0.0 | 4.8 | 0.00 | 0.00 | 0.00 | 81 | 1008.0 |
| 20260902123836 | 14 | 148 | 0.0 | 3.2 | 0.00 | 0.00 | 0.00 | 81 | 1008.1 |
| 20260902123333 | 15 | 173 | 0.0 | 3.2 | 0.00 | 0.00 | 0.00 | 81 | 1008.1 |
| 20260902122833 | 15 | 173 | 0.0 | 3.2 | 0.00 | 0.00 | 0.00 | 80 | 1008.3 |
| 20260902122333 | 15 | 173 | 0.0 | 3.2 | 0.00 | 0.00 | 0.00 | 80 | 1008.3 |
| 20260902121839 | 15 | 157 | 1.6 | 4.8 | 0.00 | 0.00 | 0.00 | 80 | 1008.5 |
| 20260902121835 | 15 | 173 | 0.0 | 3.2 | 0.00 | 0.00 | 0.00 | 80 | 1008.4 |
| 20260902121438 | 15 | 155 | 0.0 | 4.8 | 0.00 | 0.00 | 0.00 | 80 | 1008.5 |
| 20260902120945 | 15 | 142 | 0.0 | 4.8 | 0.00 | 0.00 | 0.00 | 80 | 1008.5 |
| 20260902120333 | 15 | 180 | 1.6 | 4.8 | 0.00 | 0.00 | 0.00 | 80 | 1008.6 |
| 20260902115947 | 15 | 166 | 1.6 | 8.0 | 0.00 | 0.00 | 0.00 | 80 | 1008.6 |
| 20260902114832 | 15 | 175 | 1.6 | 8.0 | 0.00 | 0.00 | 0.00 | 80 | 1008.8 |
| 20260902114329 | 15 | 163 | 1.6 | 8.0 | 0.00 | 0.00 | 0.00 | 80 | 1008.9 |
| 20260902113829 | 15 | 169 | 1.6 | 8.0 | 0.00 | 0.00 | 0.00 | 80 | 1009.0 |
| 20260902113334 | 15 | 192 | 1.6 | 9.7 | 0.00 | 0.00 | 0.00 | 81 | 1009.0 |
| 20260902113329 | 15 | 173 | 1.6 | 4.8 | 0.00 | 0.00 | 0.00 | 81 | 1008.9 |
| 20260902112329 | 15 | 180 | 1.6 | 9.7 | 0.00 | 0.00 | 0.00 | 81 | 1009.1 |
| 20260902111829 | 15 | 189 | 3.2 | 11.3 | 0.00 | 0.00 | 0.00 | 81 | 1009.2 |
| 20260902111329 | 15 | 202 | 1.6 | 11.3 | 0.00 | 0.00 | 0.00 | 81 | 1009.2 |
| 20260902110829 | 15 | 198 | 1.6 | 11.3 | 0.00 | 0.00 | 0.00 | 80 | 1009.3 |
| 20260902110329 | 15 | 185 | 1.6 | 11.3 | 0.00 | 0.00 | 0.00 | 80 | 1009.4 |
| 20260902105828 | 15 | 186 | 1.6 | 6.4 | 0.00 | 0.00 | 0.00 | 80 | 1009.4 |
| 20260902105328 | 15 | 178 | 1.6 | 9.7 | 0.00 | 0.00 | 0.00 | 80 | 1009.4 |
| 20260902104831 | 15 | 171 | 1.6 | 8.0 | 0.00 | 0.00 | 0.00 | 80 | 1009.5 |
| 20260902104827 | 15 | 132 | 1.6 | 9.7 | 0.00 | 0.00 | 0.00 | 80 | 1009.4 |
| 20260902104440 | 15 | 173 | 1.6 | 9.7 | 0.00 | 0.00 | 0.00 | 80 | 1009.6 |
| 20260902103327 | 15 | 166 | 1.6 | 9.7 | 0.00 | 0.00 | 0.00 | 80 | 1009.6 |
| 20260902102827 | 15 | 175 | 1.6 | 6.4 | 0.00 | 0.00 | 0.00 | 80 | 1009.6 |
| 20260902102333 | 15 | 179 | 3.2 | 8.0 | 0.00 | 0.00 | 0.00 | 80 | 1009.7 |
| 20260902102327 | 15 | 166 | 3.2 | 6.4 | 0.00 | 0.00 | 0.00 | 80 | 1009.7 |
| 20260902101326 | 15 | 182 | 3.2 | 8.0 | 0.00 | 0.00 | 0.00 | 80 | 1009.7 |
| 20260902100827 | 15 | 176 | 3.2 | 8.0 | 0.00 | 0.00 | 0.00 | 81 | 1009.7 |
| 20260902100325 | 14 | 168 | 3.2 | 8.0 | 0.00 | 0.00 | 0.00 | 81 | 1009.8 |
| 20260902095826 | 14 | 184 | 1.6 | 4.8 | 0.00 | 0.00 | 0.00 | 81 | 1009.8 |
| 20260902095326 | 14 | 174 | 1.6 | 9.7 | 0.00 | 0.00 | 0.00 | 82 | 1009.8 |
| 20260902094826 | 14 | 185 | 3.2 | 9.7 | 0.00 | 0.00 | 0.00 | 82 | 1009.9 |
| 20260902094327 | 14 | 176 | 3.2 | 8.0 | 0.00 | 0.00 | 0.00 | 82 | 1009.9 |
| 20260902093830 | 14 | 190 | 1.6 | 4.8 | 0.00 | 0.00 | 0.00 | 82 | 1009.9 |
| 20260902093825 | 14 | 173 | 1.6 | 8.0 | 0.00 | 0.00 | 0.00 | 82 | 1009.8 |
| 20260902092826 | 14 | 190 | 1.6 | 4.8 | 0.00 | 0.00 | 0.00 | 81 | 1009.9 |
| 20260902092326 | 14 | 190 | 3.2 | 6.4 | 0.00 | 0.00 | 0.00 | 81 | 1010.0 |
| 20260902091826 | 14 | 190 | 3.2 | 6.4 | 0.00 | 0.00 | 0.00 | 81 | 1010.1 |
| 20260902091323 | 14 | 190 | 3.2 | 8.0 | 0.00 | 0.00 | 0.00 | 81 | 1010.2 |
| 20260902090824 | 14 | 190 | 3.2 | 8.0 | 0.00 | 0.00 | 0.00 | 81 | 1010.1 |
| 20260902090324 | 14 | 178 | 1.6 | 4.8 | 0.00 | 0.00 | 0.00 | 81 | 1010.1 |
| 20260902085824 | 14 | 179 | 1.6 | 6.4 | 0.00 | 0.00 | 0.00 | 82 | 1010.2 |
| 20260902085323 | 14 | 170 | 1.6 | 8.0 | 0.00 | 0.00 | 0.00 | 83 | 1010.3 |
| 20260902084823 | 14 | 161 | 1.6 | 8.0 | 0.00 | 0.00 | 0.00 | 84 | 1010.3 |
| 20260902084324 | 13 | 192 | 0.0 | 4.8 | 0.00 | 0.00 | 0.00 | 85 | 1010.4 |
| 20260902083824 | 13 | 200 | 0.0 | 3.2 | 0.00 | 0.00 | 0.00 | 86 | 1010.4 |
| 20260902083322 | 13 | 254 | 0.0 | 3.2 | 0.00 | 0.00 | 0.00 | 87 | 1010.4 |
| 20260902082826 | 13 | 254 | 0.0 | 0.0 | 0.00 | 0.00 | 0.00 | 87 | 1010.5 |
| 20260902082821 | 13 | 254 | 0.0 | 0.0 | 0.00 | 0.00 | 0.00 | 87 | 1010.4 |
| 20260902081825 | 12 | 254 | 0.0 | 0.0 | 0.00 | 0.00 | 0.00 | 85 | 1010.6 |
| 20260902081820 | 12 | 254 | 0.0 | 0.0 | 0.00 | 0.00 | 0.00 | 86 | 1010.4 |
| 20260902081319 | 12 | 254 | 0.0 | 0.0 | 0.00 | 0.00 | 0.00 | 85 | 1010.6 |
| 20260902080319 | 12 | 254 | 0.0 | 0.0 | 0.00 | 0.00 | 0.00 | 85 | 1010.6 |
| 20260902075824 | 12 | 254 | 0.0 | 0.0 | 0.00 | 0.00 | 0.00 | 85 | 1010.7 |
| 20260902075820 | 12 | 254 | 0.0 | 0.0 | 0.00 | 0.00 | 0.00 | 87 | 1010.7 |
| 20260902074819 | 12 | 254 | 0.0 | 0.0 | 0.00 | 0.00 | 0.00 | 85 | 1010.8 |
| 20260902074318 | 12 | 254 | 0.0 | 0.0 | 0.00 | 0.00 | 0.00 | 85 | 1010.8 |
| 20260902073817 | 12 | 254 | 0.0 | 0.0 | 0.00 | 0.00 | 0.00 | 82 | 1010.9 |
| 20260902073316 | 12 | 254 | 0.0 | 1.6 | 0.00 | 0.00 | 0.00 | 81 | 1010.9 |
| 20260902072816 | 13 | 254 | 0.0 | 1.6 | 0.00 | 0.00 | 0.00 | 80 | 1010.9 |
| 20260902072317 | 13 | 254 | 0.0 | 3.2 | 0.00 | 0.00 | 0.00 | 81 | 1010.9 |
| 20260902071822 | 13 | 254 | 0.0 | 3.2 | 0.00 | 0.00 | 0.00 | 80 | 1011.0 |
| 20260902071818 | 13 | 254 | 0.0 | 3.2 | 0.00 | 0.00 | 0.00 | 80 | 1011.0 |
| 20260902070817 | 14 | 297 | 0.0 | 3.2 | 0.00 | 0.00 | 0.00 | 79 | 1011.1 |
| 20260902070320 | 15 | 297 | 0.0 | 3.2 | 0.00 | 0.00 | 0.00 | 78 | 1011.0 |
| 20260902070316 | 14 | 297 | 0.0 | 3.2 | 0.00 | 0.00 | 0.00 | 79 | 1011.1 |
| 20260902065928 | 15 | 297 | 0.0 | 1.6 | 0.00 | 0.00 | 0.00 | 77 | 1011.1 |
| 20260902065315 | 15 | 297 | 0.0 | 3.2 | 0.00 | 0.00 | 0.00 | 77 | 1011.1 |
| 20260902064315 | 15 | 297 | 0.0 | 4.8 | 0.00 | 0.00 | 0.00 | 77 | 1011.0 |
| 20260902063816 | 15 | 297 | 0.0 | 4.8 | 0.00 | 0.00 | 0.00 | 77 | 1011.0 |
| 20260902063315 | 16 | 211 | 0.0 | 3.2 | 0.00 | 0.00 | 0.00 | 77 | 1011.2 |
| 20260902062815 | 16 | 211 | 0.0 | 3.2 | 0.00 | 0.00 | 0.00 | 77 | 1011.3 |
| 20260902062319 | 16 | 207 | 0.0 | 3.2 | 0.00 | 0.00 | 0.00 | 76 | 1011.3 |
| 20260902062315 | 16 | 207 | 0.0 | 3.2 | 0.00 | 0.00 | 0.00 | 76 | 1011.3 |
| 20260902061316 | 16 | 207 | 0.0 | 3.2 | 0.00 | 0.00 | 0.00 | 76 | 1011.3 |
| 20260902060813 | 16 | 207 | 0.0 | 3.2 | 0.00 | 0.00 | 0.00 | 75 | 1011.3 |
| 20260902060313 | 16 | 207 | 1.6 | 3.2 | 0.00 | 0.00 | 0.00 | 75 | 1011.4 |
| 20260902055813 | 16 | 207 | 1.6 | 4.8 | 0.00 | 0.00 | 0.00 | 75 | 1011.4 |
| 20260902055313 | 16 | 208 | 0.0 | 4.8 | 0.00 | 0.00 | 0.00 | 75 | 1011.5 |
| 20260902054814 | 16 | 210 | 0.0 | 3.2 | 0.00 | 0.00 | 0.00 | 75 | 1011.5 |
| 20260902054313 | 16 | 210 | 0.0 | 3.2 | 0.00 | 0.00 | 0.00 | 75 | 1011.5 |
| 20260902053813 | 16 | 210 | 0.0 | 3.2 | 0.00 | 0.00 | 0.00 | 75 | 1011.5 |
| 20260902053312 | 16 | 210 | 0.0 | 3.2 | 0.00 | 0.00 | 0.00 | 75 | 1011.5 |
| 20260902052811 | 16 | 210 | 0.0 | 3.2 | 0.00 | 0.00 | 0.00 | 75 | 1011.6 |
| 20260902052316 | 16 | 222 | 0.0 | 4.8 | 0.00 | 0.00 | 0.00 | 75 | 1011.6 |
| 20260902052312 | 16 | 219 | 0.0 | 4.8 | 0.00 | 0.00 | 0.00 | 75 | 1011.6 |
| 20260902051311 | 16 | 231 | 0.0 | 3.2 | 0.00 | 0.00 | 0.00 | 75 | 1011.6 |
| 20260902050816 | 16 | 285 | 0.0 | 3.2 | 0.00 | 0.00 | 0.00 | 74 | 1011.6 |
| 20260902050812 | 16 | 247 | 0.0 | 3.2 | 0.00 | 0.00 | 0.00 | 75 | 1011.6 |
| 20260902045811 | 16 | 285 | 0.0 | 3.2 | 0.00 | 0.00 | 0.00 | 74 | 1011.7 |
| 20260902045317 | 16 | 286 | 0.0 | 3.2 | 0.00 | 0.00 | 0.00 | 75 | 1011.6 |
| 20260902044814 | 16 | 286 | 0.0 | 3.2 | 0.00 | 0.00 | 0.00 | 74 | 1011.7 |
| 20260902044310 | 16 | 286 | 0.0 | 0.0 | 0.00 | 0.00 | 0.00 | 74 | 1011.6 |
| 20260902043811 | 16 | 286 | 0.0 | 0.0 | 0.00 | 0.00 | 0.00 | 74 | 1011.6 |
| 20260902043309 | 16 | 286 | 0.0 | 0.0 | 0.00 | 0.00 | 0.00 | 74 | 1011.6 |
| 20260902042808 | 16 | 286 | 0.0 | 0.0 | 0.00 | 0.00 | 0.00 | 73 | 1011.6 |
| 20260902042310 | 16 | 286 | 0.0 | 0.0 | 0.00 | 0.00 | 0.00 | 73 | 1011.5 |
| 20260902041810 | 16 | 286 | 0.0 | 3.2 | 0.00 | 0.00 | 0.00 | 72 | 1011.5 |
| 20260902041309 | 16 | 286 | 0.0 | 3.2 | 0.00 | 0.00 | 0.00 | 71 | 1011.6 |
| 20260902040809 | 16 | 286 | 0.0 | 3.2 | 0.00 | 0.00 | 0.00 | 72 | 1011.6 |
| 20260902040309 | 16 | 286 | 0.0 | 3.2 | 0.00 | 0.00 | 0.00 | 72 | 1011.5 |
| 20260902035809 | 16 | 286 | 0.0 | 3.2 | 0.00 | 0.00 | 0.00 | 72 | 1011.6 |
| 20260902035308 | 16 | 286 | 0.0 | 3.2 | 0.00 | 0.00 | 0.00 | 72 | 1011.6 |
| 20260902034813 | 16 | 286 | 1.6 | 4.8 | 0.00 | 0.00 | 0.00 | 72 | 1011.5 |
| 20260902034809 | 16 | 286 | 1.6 | 3.2 | 0.00 | 0.00 | 0.00 | 72 | 1011.5 |
| 20260902033809 | 16 | 286 | 0.0 | 4.8 | 0.00 | 0.00 | 0.00 | 72 | 1011.5 |
| 20260902033310 | 16 | 286 | 1.6 | 4.8 | 0.00 | 0.00 | 0.00 | 72 | 1011.5 |
| 20260902032809 | 17 | 286 | 3.2 | 6.4 | 0.00 | 0.00 | 0.00 | 71 | 1011.6 |
| 20260902032423 | 17 | 269 | 1.6 | 6.4 | 0.00 | 0.00 | 0.00 | 71 | 1011.6 |
| 20260902032315 | 17 | 269 | 0.0 | 6.4 | 0.00 | 0.00 | 0.00 | 71 | 1011.6 |
| 20260902032311 | 17 | 297 | 1.6 | 6.4 | 0.00 | 0.00 | 0.00 | 71 | 1011.6 |
| 20260902030810 | 17 | 261 | 0.0 | 3.2 | 0.00 | 0.00 | 0.00 | 70 | 1011.6 |
| 20260902030806 | 17 | 260 | 0.0 | 4.8 | 0.00 | 0.00 | 0.00 | 70 | 1011.6 |
| 20260902025810 | 17 | 302 | 1.6 | 4.8 | 0.00 | 0.00 | 0.00 | 69 | 1011.5 |
| 20260902025805 | 17 | 261 | 1.6 | 4.8 | 0.00 | 0.00 | 0.00 | 69 | 1011.5 |
| 20260902024805 | 17 | 281 | 1.6 | 4.8 | 0.00 | 0.00 | 0.00 | 69 | 1011.6 |
| 20260902024305 | 17 | 294 | 1.6 | 6.4 | 0.00 | 0.00 | 0.00 | 69 | 1011.5 |
| 20260902023804 | 17 | 261 | 1.6 | 6.4 | 0.00 | 0.00 | 0.00 | 69 | 1011.5 |
| 20260902023305 | 17 | 246 | 1.6 | 6.4 | 0.00 | 0.00 | 0.00 | 69 | 1011.5 |
| 20260902022805 | 17 | 213 | 1.6 | 9.7 | 0.00 | 0.00 | 0.00 | 68 | 1011.5 |
| 20260902022310 | 18 | 306 | 3.2 | 6.4 | 0.00 | 0.00 | 0.00 | 67 | 1011.4 |
| 20260902022306 | 17 | 273 | 1.6 | 9.7 | 0.00 | 0.00 | 0.00 | 68 | 1011.5 |
| 20260902021801 | 18 | 292 | 3.2 | 6.4 | 0.00 | 0.00 | 0.00 | 67 | 1011.4 |
| 20260902020800 | 18 | 259 | 3.2 | 8.0 | 0.00 | 0.00 | 0.00 | 66 | 1011.4 |
| 20260902020302 | 18 | 286 | 3.2 | 8.0 | 0.00 | 0.00 | 0.00 | 64 | 1011.4 |
| 20260902015800 | 19 | 282 | 3.2 | 8.0 | 0.00 | 0.00 | 0.00 | 63 | 1011.3 |
| 20260902015305 | 19 | 302 | 3.2 | 9.7 | 0.00 | 0.00 | 0.00 | 63 | 1011.3 |
| 20260902014806 | 19 | 297 | 3.2 | 12.9 | 0.00 | 0.00 | 0.00 | 62 | 1011.4 |
| 20260902014802 | 19 | 280 | 3.2 | 9.7 | 0.00 | 0.00 | 0.00 | 63 | 1011.3 |
| 20260902014415 | 20 | 189 | 3.2 | 12.9 | 0.00 | 0.00 | 0.00 | 61 | 1011.3 |
| 20260902013304 | 20 | 265 | 4.8 | 12.9 | 0.00 | 0.00 | 0.00 | 60 | 1011.3 |
| 20260902013300 | 20 | 200 | 3.2 | 12.9 | 0.00 | 0.00 | 0.00 | 61 | 1011.3 |
| 20260902012308 | 20 | 219 | 4.8 | 12.9 | 0.00 | 0.00 | 0.00 | 59 | 1011.3 |
| 20260902012257 | 20 | 255 | 6.4 | 12.9 | 0.00 | 0.00 | 0.00 | 60 | 1011.4 |
| 20260902011256 | 20 | 158 | 3.2 | 12.9 | 0.00 | 0.00 | 0.00 | 61 | 1011.2 |
| 20260902010802 | 19 | 286 | 3.2 | 12.9 | 0.00 | 0.00 | 0.00 | 62 | 1011.3 |